GAOFEN-8

Last updated on Sun Jul 06 2025 00:02:28 GMT+0000 (Coordinated Universal Time)

1 40701U 15030A 25186.62660235 .00012205 00000+0 38713-3 0 9997 2 40701 97.6901 357.8006 0011760 356.9007 3.2159 15.32782640558141
UTC large
Height (km)
Speed (km/s)
/
Latitude / Longitude
Inclination (degrees)
Orbital Period (minutes)
Azimuth
Elevation
Range (km)
Doppler Factor

Next 0 passes for location: London (51.5072 / 0.1276)

Sorry there are no passes over London.